Regional Weather Roundup
Issued by NWS

Home | Current Version | Previous Version | Text Only | Print | Product List | Glossary On
Versions: 1 2 3 4 5 6 7 8 9 10 11 12 13 14 15 16 17 18 19 20 21 22 23 24 25 26 27 28 29 30 31 32 33 34 35 36 37 38 39 40 41 42 43 44 45 46 47 48 49 50
389
ASUS43 KMKX 090521
RWRWI

WISCONSIN REGIONAL WEATHER ROUNDUP
NATIONAL WEATHER SERVICE MILWAUKEE/SULLIVAN WI
1100 PM CST MON FEB 08 2016

NOTE: "FAIR" INDICATES FEW OR NO CLOUDS BELOW 12,000 FEET WITH NO
SIGNIFICANT WEATHER AND/OR OBSTRUCTIONS TO VISIBILITY.

WIZ001-002-006>008-014>016-023>028-090600-
NORTHWEST WISCONSIN

CITY           SKY/WX    TMP DP  RH WIND       PRES   REMARKS
SUPERIOR ARPT  CLOUDY     8  -1  66 N13G21    30.01S WCI  -8
ASHLAND        CLOUDY    10   7  87 NW9       29.91S FOG     WCI  -3
HAYWARD        CLOUDY     7   1  76 N8        29.90R HAZE    WCI  -6
SIREN          MOCLDY     8  -1  69 N9G20     29.97R WCI  -6
CUMBERLAND     MOCLDY     9   0  66 N14G20    29.90R WCI  -8
RICE LAKE      MOCLDY     9   1  72 NW10G17   29.92R WCI  -6
CHETEK         CLOUDY     8   2  73 MISG      29.91R
LADYSMITH      CLOUDY    10   4  77 NW13      29.87S WCI  -6
EAU CLAIRE     CLOUDY    10   1  67 N10       29.90S WCI  -4
MENOMONIE      CLOUDY    12   3  67 NW10      29.93R WCI  -1
NEW RICHMOND   CLOUDY    10   2  70 N16       29.95R WCI  -7
OSCEOLA        CLOUDY    11   2  66 NW17G24   29.99S WCI  -6
$$

WIZ003>005-009-010-017-018-090600-
NORTH CENTRAL WISCONSIN

CITY           SKY/WX    TMP DP  RH WIND       PRES   REMARKS
MANITOWISH WTR LGT SNOW  10   7  85 NW7       29.75F WCI   0
ARBOR VITAE    LGT SNOW  11   8  85 NW5       29.74F WCI   3
WOODRUFF       LGT SNOW  11   8  85 NW5       29.74F WCI   3
RHINELANDER    LGT SNOW  10   5  80 NW6       29.73F WCI   0
EAGLE RIVER    FLURRIES  11   5  79 NW8       29.72S WCI  -1
LAND O LAKES   LGT SNOW  12   8  83 N10       29.73S WCI  -1
PHILLIPS       LGT SNOW   8   3  80 NW6       29.79S WCI  -2
TOMAHAWK       CLOUDY     9   4  79 NW7       29.77S WCI  -2
MEDFORD        LGT SNOW   9   4  80 NW15      29.78S WCI  -8
MERRILL        FLURRIES  10   5  79 NW6       29.78S WCI   1
$$

WIZ029-030-035-036-043>047-090600-
CENTRAL WISCONSIN

CITY           SKY/WX    TMP DP  RH WIND       PRES   REMARKS
WAUSAU         CLOUDY    13   5  70 NW10      29.76F WCI   0
MOSINEE        FLURRIES  12   9  85 NW9       29.79S WCI   0
MARSHFIELD     LGT SNOW  11   4  73 NW16      29.79S WCI  -6
STEVENS POINT  FLURRIES  11   6  79 NW8G16    29.79S WCI   0
WAUPACA        LGT SNOW  19  13  76 NW13G18   29.78S WCI   6
WAUTOMA        LGT SNOW  15  11  84 NW13G20   29.80R FOG     WCI   1
WISC RAPIDS    FLURRIES  13   5  70 N14       29.82S WCI  -2
CAMP DOUGLAS   FLURRIES  12  10  92 NW10      29.83S WCI  -1
$$

WIZ011>013-019>022-031-037>040-048>050-090600-
NORTHEAST WISCONSIN

CITY           SKY/WX    TMP DP  RH WIND       PRES   REMARKS
ANTIGO         FLURRIES  11   7  82 NW9       29.72F WCI  -1
SHAWANO        FLURRIES  19  11  70 NW6       29.77S WCI  11
OCONTO         CLOUDY    18  14  84 N6        29.76S WCI  10
STURGEON BAY   CLOUDY    18   9  68 N17       29.75S WCI   2
GREEN BAY      CLOUDY    19  11  70 NW14      29.75S WCI   6
MANITOWOC      CLOUDY    19  14  81 N15       29.74S WCI   5
APPLETON       FLURRIES  18  12  79 NW12      29.74R WCI   5
CLINTONVILLE   FLURRIES  18  10  73 N9        29.77S WCI   6
OSHKOSH        CLOUDY    19  11  70 NW10      29.75S WCI   7
$$

WIZ032>034-041-042-053>061-090600-
SOUTHWEST WISCONSIN

CITY           SKY/WX    TMP DP  RH WIND       PRES   REMARKS
LA CROSSE      LGT SNOW  14   8  77 NW15      29.89S WCI  -1
SPARTA         LGT SNOW  14  10  85 NW7       29.87S WCI   3
VIROQUA        CLOUDY    12   9  85 N12       29.81F WCI  -2
BOSCOBEL       LGT SNOW  16   9  74 NW8       29.87S WCI   5
PRAIRIE DU CHI MIX PCPN  15   9  77 NW10      29.88S WCI   3
PLATTEVILLE    CLOUDY    15  11  86 NW12      29.82S WCI   1
$$

WIZ056-057-062-063-064-067-068-090600-
SOUTH CENTRAL WISCONSIN

CITY           SKY/WX    TMP DP  RH WIND       PRES   REMARKS
REEDSBURG      FLURRIES  13   8  80 NW12G18   29.81S WCI   0
BARABOO/DELLS  LGT SNOW  13   9  81 NW12G17   29.80S WCI   0
LONE ROCK      LGT SNOW  15   9  76 NW10      29.84S WCI   2
MINERAL POINT  FLURRIES  16  12  86 NW13      29.80S WCI   2
MADISON        FLURRIES  14   9  80 NW12      29.78F WCI   0
MIDDLETON      CLOUDY    16  11  80 NW13G18   29.79F WCI   3
WATERTOWN      FLURRIES  16  15  93 NW8G16    29.76S WCI   6
MONROE         CLOUDY    18  12  79 NW6G17    29.77S WCI   9
JANESVILLE     FLURRIES  19  14  79 N13       29.77F WCI   7
$$

WIZ051-052-058>065-066-070>072-090600-
SOUTHEAST WISCONSIN

CITY           SKY/WX    TMP DP  RH WIND       PRES   REMARKS
MILWAUKEE      LGT SNOW  20  14  77 NW15      29.72S WCI   6
WAUKESHA       LGT SNOW  16  12  86 NW14      29.74S WCI   1
MILWAUKEE/TIMM CLOUDY    19  12  73 NW15      29.74S WCI   5
RACINE         FLURRIES  21  14  74 NW12G20   29.74R WCI   9
BURLINGTON     LGT SNOW  17  13  83 NW10      29.74S WCI   5
KENOSHA        LGT SNOW  20  15  81 NW15      29.73R WCI   6
FOND DU LAC    LGT SNOW  18  13  80 NW9       29.75S WCI   7
SHEBOYGAN      LGT SNOW  21  15  78 N7        29.72S WCI  12
WEST BEND      FLURRIES  19  14  79 NW14      29.73S WCI   6
JUNEAU         LGT SNOW  15  12  85 NW12G18   29.76S WCI   2
$$

LSZ147-162-090600-
LAKE SUPERIOR

STATION/POSITION TIME  TEMP    WIND        PRES    WAVE
                       AIR SEA DIR/SP/G            HT/PER
                 (UTC) (F)     (DEG/KT/KT) (MB)    (FT/S)
DEVILS ISLAND    0500   14     350/ 24/ 28 1014.5R
PORT WING        0409   13     330/ 18/ 25 1014.6S
SAXON HARBOR     0440   16                 1011.5F
$$

LMZ867-665-643>646-090600-
LAKE MICHIGAN

STATION/POSITION TIME  TEMP    WIND        PRES    WAVE
                       AIR SEA DIR/SP/G            HT/PER
                 (UTC) (F)     (DEG/KT/KT) (MB)    (FT/S)
CHAMBERS ISLAND  0400   18     320/ 16/ 21 1007.8R
NORTHPORT PIER   0403   20     330/ 20     1007.1S
ALGOMA LAKESHORE 0411          320/ 13/ 17   N/A
KEWAUNEE LAKESHO 0400   20     340/ 10/ 14 1006.5R
SHEBOYGAN LAKESH 0500   22     350/ 21/ 24 1007.8R
PORT WASHINGTON  0400   22     310/  9/ 15 1007.8R
MILWAUKEE LAKESH 0410   22     300/ 14/ 19   N/A
KENOSHA   LAKESH 0500   21     300/ 15/ 24 1006.8S
$$

TC  - TEMPERATURE IN CELSIUS
VSB - VISIBILITY IN STATUTE MILES
WCI - WIND CHILL INDEX
HX  - HEAT INDEX





USA.gov is the U.S. government's official web portal to all federal, state and local government web resources and services.